This is the latest recevied weather packets stored in our database for station/object IK6IHU-3. If no packets are shown the sender has not sent any weather packets the latest 10 day(s).
| Time | Temp. | Humidity | Pressure | Rain* | Wind** | Luminosity | Snow |
|---|---|---|---|---|---|---|---|
| 1778404894 | 18.33° C | 74% | 1013.1 hPa | 0 mm | - | 0 W/m² | - |
| 1778404834 | 18.33° C | 74% | 1013.2 hPa | 0 mm | - | 0 W/m² | - |
| 1778404774 | 18.33° C | 74% | 1013.4 hPa | 0 mm | - | 0 W/m² | - |
| 1778404714 | 18.33° C | 75% | 1013.3 hPa | 0 mm | - | 0 W/m² | - |
| 1778404654 | 18.89° C | 75% | 1013.3 hPa | 0 mm | - | 0 W/m² | - |
| 1778404594 | 18.89° C | 75% | 1013.3 hPa | 0 mm | - | 0 W/m² | - |
| 1778404534 | 18.89° C | 75% | 1013.5 hPa | 0 mm | - | 0 W/m² | - |
| 1778404474 | 18.89° C | 74% | 1013.3 hPa | 0 mm | - | 0 W/m² | - |
| 1778404414 | 18.33° C | 73% | 1013.3 hPa | 0 mm | - | 0 W/m² | - |
| 1778404354 | 18.89° C | 74% | 1013.3 hPa | 0 mm | - | 0 W/m² | - |
| 1778404294 | 18.33° C | 74% | 1013.4 hPa | 0 mm | - | 0 W/m² | - |
| 1778404234 | 18.33° C | 72% | 1013.6 hPa | 0 mm | - | 0 W/m² | - |
| 1778404175 | 18.33° C | 72% | 1013.4 hPa | 0 mm | - | 0 W/m² | - |
| 1778404114 | 17.78° C | 72% | 1013.3 hPa | 0 mm | - | 0 W/m² | - |
| 1778404054 | 17.78° C | 72% | 1013.3 hPa | 0 mm | - | 0 W/m² | - |
| 1778403994 | 17.78° C | 73% | 1013.3 hPa | 0 mm | - | 0 W/m² | - |
| 1778403934 | 17.78° C | 74% | 1013.4 hPa | 0 mm | - | 0 W/m² | - |
| 1778403874 | 16.67° C | 73% | 1013.3 hPa | 0 mm | - | 0 W/m² | - |
| 1778403814 | 17.22° C | 75% | 1013.1 hPa | 0.25 mm | - | 0 W/m² | - |
| 1778403754 | 17.22° C | 76% | 1013.4 hPa | 0.25 mm | - | 0 W/m² | - |
| 1778403694 | 17.22° C | 77% | 1013.3 hPa | 0.51 mm | - | 0 W/m² | - |
| 1778403635 | 16.67° C | 76% | 1013.3 hPa | 0.51 mm | - | 0 W/m² | - |
| 1778403574 | 16.67° C | 77% | 1013.4 hPa | 1.02 mm | - | 0 W/m² | - |
| 1778403514 | 16.11° C | 77% | 1013.4 hPa | 1.02 mm | - | 0 W/m² | - |
| 1778403454 | 16.11° C | 78% | 1013.3 hPa | 1.27 mm | - | 0 W/m² | - |
* Rain latest hour (hover to see other rain measurements)
** Current wind speed in m/s (hover to see current wind gust speed)